Location: Newark
(31.5350°N, 35.0986°E)
Time: 23:31:59
(UTC+00:00)

Vanguard 1 - Pass Details

Date: 22 September 2019
Orbit: 653 x 3830 km, 34.2° (Epoch: 22 October)

Event Time Altitude Azimuth Distance (km) Brightness Sun altitude
Rises 22:40:53 0° 239° (WSW) 7,222 - -54.4°
Reaches altitude 10° 22:45:17 10° 238° (WSW) 6,464 - -53.9°
Maximum altitude 23:08:18 79° 156° (SSE) 3,830 - -51.0°
Exits shadow 23:09:14 78° 134° (SE) 3,822 12.6 -50.9°
Drops below altitude 10° 23:28:38 10° 74° (ENE) 5,838 14.4 -48.0°
Sets 23:32:21 0° 73° (ENE) 6,532 14.9 -47.5°
